Regional Weather Roundup
Issued by NWS

Home | Current Version | Previous Version | Text Only | Print | Product List | Glossary On
Versions: 1 2 3 4 5 6 7 8 9 10 11 12 13 14 15 16 17 18 19 20 21 22 23 24 25 26 27 28 29 30 31 32 33 34 35 36 37 38 39 40 41 42 43 44 45 46 47 48 49 50
000
ASUS43 KDTX 221710
RWRMI
MICHIGAN HOURLY REGIONAL WEATHER ROUNDUP
NATIONAL WEATHER SERVICE DETROIT/PONTIAC MI
100 PM EDT TUE APR 22 2014

NOTE: "FAIR" INDICATES FEW OR NO CLOUDS BELOW 12,000 FEET WITH NO
SIGNIFICANT WEATHER AND/OR OBSTRUCTION TO VISIBILITY.

MIZ047>049-052>055-059>063-066>070-074>076-081>083-221800-
SOUTHEAST LOWER MICHIGAN

CITY           SKY/WX    TMP DP  RH WIND       PRES   REMARKS
ADRIAN         SUNNY     54  34  46 NW20G28   29.80F
ALMA           CLOUDY    46  32  57 W22       29.84R
ANN ARBOR      MOSUNNY   54  33  45 N15G26    29.79S
BAD AXE        CLOUDY    43  34  70 W15G23    29.75S
DETROIT CITY   SUNNY     54  33  45 NW17G25   29.76S
DETROIT        MOSUNNY   54  34  46 W20G26    29.77F
FLINT          CLOUDY    48  34  58 NW20G28   29.80F
GROSSE ILE     SUNNY     55  36  47 NW18G25   29.75S
HILLSDALE      MOSUNNY   52  34  50 W15G26    29.82S
HOWELL         CLOUDY    48  33  56 NW20G25   29.80S

CITY           SKY/WX    TMP DP  RH WIND       PRES   REMARKS
JACKSON        PTSUNNY   50  33  52 N13G25    29.81F
LAMBERTVILLE   SUNNY     57  34  41 NW15G22   29.79R
LANSING        CLOUDY    49  32  52 NW14G25   29.83F
LAPEER         NOT AVBL
MASON          CLOUDY    48  33  55 W17G24    29.82S
MONROE         SUNNY     55  37  50 NW20G25   29.76S
MT. CLEMENS    MOSUNNY   52  35  51 NW16G23   29.74F
PONTIAC        CLOUDY    46  33  60 W17       29.78R
PORT HOPE        N/A     44  34  67 W13G18    29.72R
PORT HURON     CLOUDY    46  36  66 NW14G20   29.75F
TRI CITIES     MOSUNNY   50  33  52 W23G31    29.79S
YPSILANTI      MOSUNNY   57  34  41 W18G28    29.78S
$$
MIZ043>046-050>051-056>058-064>065-071>073-077>080-221800-
SOUTHWEST LOWER MICHIGAN

CITY           SKY/WX    TMP DP  RH WIND       PRES   REMARKS
BATTLE CREEK   PTSUNNY   50  33  52 NW24      29.86F
BENTON HARBOR  SUNNY     42  33  70 NW12G28   29.97R
BIG RAPIDS     CLOUDY    40  31  69 NW15G22   29.87S
COLDWATER      PTSUNNY   51  34  52 NW18G25   29.85S
HOLLAND        SUNNY     47  33  58 NW17G30   29.93S
GRAND RAPIDS   PTSUNNY   49  32  52 NW18G28   29.88S
KALAMAZOO      PTSUNNY   50  33  52 NW20G25   29.89R
MARSHALL       PTSUNNY   50  33  51 NW16G22   29.84S
MUSKEGON       PTSUNNY   47  30  51 NW22G28   29.93R
$$
MIZ016>042-221800-
NORTHERN LOWER MICHIGAN

CITY           SKY/WX    TMP DP  RH WIND       PRES   REMARKS
ALPENA         CLOUDY    41  35  79 NW16G24   29.73R
BEAVER ISLAND  CLOUDY    36  31  85 NW13G20   29.86S
BELLAIRE       CLOUDY    36  31  83 NW10G18   29.87R
CADILLAC       LGT SNOW  35  32  90 NW14G24   29.86S
CHARLEVOIX     CLOUDY    36  33  89 NW20G25   29.89R
FRANKFORT      CLOUDY    39  31  73 NW12G22   29.93R
GAYLORD        CLOUDY    32  32 100 NW13G29   29.79R FOG
GRAYLING       LGT SNOW  34  33  96 W18G25    29.82R
HARBOR SPRINGS CLOUDY    38  33  82 W12       29.82R
HOUGHTON LAKE  CLOUDY    36  31  82 NW23G32   29.82R
MANISTEE       CLOUDY    39  28  65 NW14G23   29.94R
OSCODA         CLOUDY    45  35  68 NW21G26   29.72S
PELLSTON       CLOUDY    37  32  82 NW20G26   29.81R
TRAVERSE CITY  CLOUDY    38  30  73 NW15G25   29.88R
$$
MIZ007>008-015-221800-
EASTERN UPPER MICHIGAN

CITY           SKY/WX    TMP DP  RH WIND       PRES   REMARKS
KINROSS        CLOUDY    39  34  81 NW18G36   29.75R
MACKINAC ISLAN CLOUDY    39  32  75 NW13G21   29.78R
NEWBERRY       CLOUDY    34  30  86 NW15G25   29.85R
S. S. MARIE    PTSUNNY   41  32  70 NW16G28   29.76R
$$
MIZ004>006-011>014-085-221800-
CENTRAL UPPER MICHIGAN

CITY           SKY/WX    TMP DP  RH WIND       PRES   REMARKS
MANISTIQUE     CLOUDY    37  31  78 NW18G31   29.89R
ESCANABA       CLOUDY    43  27  52 N15G24    29.93R
MENOMINEE      CLOUDY    45  27  49 N15G22    29.94S
SAWYER-GWINN   CLOUDY    37  27  65 N17G24    29.94R
$$
MIZ001>003-009>011-084-221800-
WESTERN UPPER MICHIGAN

CITY           SKY/WX    TMP DP  RH WIND       PRES   REMARKS
IRON MOUNTAIN  CLOUDY    40  24  53 NW21G29   29.95R
HOUGHTON       LGT RAIN  36  26  67 N22       30.01R
COPPER HARBOR    N/A     34  29  82 N17       30.00R
IRONWOOD       CLOUDY    37  25  60 NW14G21   30.05R
$$

ABBREVIATIONS USED IN REMARKS
   TC - TEMPERATURE IN CELSIUS
  WCI - WIND CHILL INDEX
   HX - HEAT INDEX
  VSB - VISIBILITY




USA.gov is the U.S. government's official web portal to all federal, state and local government web resources and services.